Flag for U.S.A. Weather past 2 weeks in Baltimore, Maryland, U.S.A.

Now
64 °F

High level clouds.


Feels Like: 64 °F
Forecast: 51 / 64 °F
Wind: No wind

Location: Baltimore-Washington International Airport

Current Time: Apr 18, 2015 at 11:53:36 PM

Latest Report: Apr 18, 2015 at 10:54 PM


Visibility: 10 mi

Pressure: 29.98 "Hg

Humidity: 56%

Dew point: 48 °F

Location of BaltimoreLocation

Historic Weather in Baltimore — Graph

°F

Baltimore temperature yesterday

Maximum temperature yesterday: 77 °F (at 3:54 PM)
Minimum temperature yesterday: 55 °F (at 1:54 AM)
Average temperature yesterday: 65 °F

Past Weeks' High & Low Weather Summary

 TemperatureHumidityPressure
High79 °F (Apr 18, 3:54 PM)100% (Apr 8, 1:01 AM)30.43 "Hg (Apr 8, 1:01 AM)
Low33 °F (Apr 12, 6:54 AM)13% (Apr 5, 5:54 PM)29.58 "Hg (Apr 4, 12:54 AM)
Average55 °F62%30.14 "Hg
* Reported Apr 3 9:54 PM — Apr 18 9:54 PM, Baltimore, Weather by CustomWeather, © 2015

Note: Actual official high and low records may vary slightly from our data, if they occured in-between our weather recording intervals... More about our weather records

Advertising

Baltimore weather history for previous 24 hours

 ConditionsComfort  
Time TempWeatherWind HumidityBarometerVisibility
9:54 PM
Sat, Apr 18
67 °FPassing clouds.3 mph49%29.98 "Hg10 mi
8:54 PM69 °FPassing clouds.5 mph44%29.96 "Hg10 mi
7:54 PM71 °FPartly sunny.6 mph41%29.95 "Hg10 mi
6:54 PM74 °FHigh level clouds.7 mph37%29.94 "Hg10 mi
5:54 PM77 °FHigh level clouds.6 mph29%29.95 "Hg10 mi
4:54 PM79 °FPartly sunny.8 mph25%29.93 "Hg10 mi
3:54 PM79 °FScattered clouds.8 mph28%29.93 "Hg10 mi
2:54 PM76 °FScattered clouds.No wind36%29.95 "Hg10 mi
1:54 PM75 °FScattered clouds.3 mph37%29.97 "Hg10 mi
12:54 PM73 °FScattered clouds.3 mph41%29.99 "Hg10 mi
11:54 AM71 °FScattered clouds.5 mph42%30.02 "Hg10 mi
10:54 AM70 °FScattered clouds.9 mph49%30.03 "Hg10 mi
9:54 AM68 °FPassing clouds.6 mph53%30.03 "Hg10 mi
8:54 AM66 °FPassing clouds.7 mph59%30.03 "Hg10 mi
7:54 AM63 °FPassing clouds.No wind65%30.02 "Hg10 mi
6:54 AM58 °FPartly cloudy.6 mph75%30.01 "Hg10 mi
5:54 AM55 °FPassing clouds.No wind87%29.98 "Hg10 mi
4:54 AM55 °FPassing clouds.3 mph93%29.97 "Hg10 mi
3:54 AM55 °FPassing clouds.No wind93%29.97 "Hg10 mi
2:54 AM58 °FPassing clouds.3 mph90%29.97 "Hg10 mi
1:54 AM61 °FPartly cloudy.5 mph83%29.98 "Hg10 mi
12:54 AM64 °FPartly cloudy.5 mph78%29.98 "Hg10 mi
11:54 PM
Fri, Apr 17
63 °FPassing clouds.No wind81%29.98 "Hg10 mi
Weather by CustomWeather, © 2015

See weather overviewHow to use our weather pages